Location: Arthez
(43.0833°N, 0.2500°W)
Time: 04:18:28
(UTC+00:00)

CZ-4 R/B - Pass Details

Date: 23 October 2021
Orbit: 531 x 595 km, 97.8° (Epoch: 29 November)

Event Time Altitude Azimuth Distance (km) Brightness Sun altitude
Exits shadow 19:37:03 - 203° (SSW) 2,152 4.5 -28.3°
Reaches altitude 10° 19:37:55 10° 209° (SSW) 1,848 4.2 -28.4°
Maximum altitude 19:41:14 25° 265° (W) 1,180 3.6 -29.0°
Drops below altitude 10° 19:44:38 10° 321° (NW) 1,893 4.6 -29.6°
Sets 19:47:08 0° 335° (NNW) 2,809 5.4 -30.1°
